owner,sensor,date,latitude,longitude,vertical_datum,wind_speed,wind_to_direction,wind_speed_of_gust,qcFlag 
COMPS,ioos:station:USF.COMPS:ARP:1,2019-04-01T00:00:00Z,28.4330,-82.6670,10.0,3.15,268.85,4.11,'1111122,1111122,1111122' 
COMPS,ioos:station:USF.COMPS:ARP:1,2019-04-01T00:06:00Z,28.4330,-82.6670,10.0,2.27,257.73,3.72,'1111122,1111122,1111122' 
COMPS,ioos:station:USF.COMPS:ARP:1,2019-04-01T00:12:00Z,28.4330,-82.6670,10.0,2.22,261.71,3.33,'1111122,1111122,1111122' 
COMPS,ioos:station:USF.COMPS:ARP:1,2019-04-01T00:18:00Z,28.4330,-82.6670,10.0,2.66,262.73,4.01,'1111122,1111122,1111122' 
COMPS,ioos:station:USF.COMPS:ARP:1,2019-04-01T00:24:00Z,28.4330,-82.6670,10.0,2.83,264.59,4.11,'1111122,1111122,1111122' 
COMPS,ioos:station:USF.COMPS:ARP:1,2019-04-01T00:30:00Z,28.4330,-82.6670,10.0,3.03,270.74,4.6,'1111122,1111122,1111122' 
COMPS,ioos:station:USF.COMPS:ARP:1,2019-04-01T00:36:00Z,28.4330,-82.6670,10.0,3.33,268.3,4.21,'1111122,1111122,1111122' 
COMPS,ioos:station:USF.COMPS:ARP:1,2019-04-01T00:42:00Z,28.4330,-82.6670,10.0,3.31,270.11,4.8,'1111122,1111122,1111122' 
COMPS,ioos:station:USF.COMPS:ARP:1,2019-04-01T00:48:00Z,28.4330,-82.6670,10.0,3.24,273.91,4.5,'1111122,1111122,1111122' 
COMPS,ioos:station:USF.COMPS:ARP:1,2019-04-01T00:54:00Z,28.4330,-82.6670,10.0,3.02,276.84,4.01,'1111122,1111122,1111122' 
COMPS,ioos:station:USF.COMPS:ARP:1,2019-04-01T01:00:00Z,28.4330,-82.6670,10.0,3.43,278.82,4.9,'1111122,1111122,1111122' 
COMPS,ioos:station:USF.COMPS:ARP:1,2019-04-01T01:06:00Z,28.4330,-82.6670,10.0,4.75,277.78,6.76,'1111122,1111122,1111122' 
COMPS,ioos:station:USF.COMPS:ARP:1,2019-04-01T01:12:00Z,28.4330,-82.6670,10.0,5.02,278.74,6.85,'1111122,1111122,1111122' 
COMPS,ioos:station:USF.COMPS:ARP:1,2019-04-01T01:18:00Z,28.4330,-82.6670,10.0,6.68,287.85,10.78,'1111122,1111122,1111122' 
COMPS,ioos:station:USF.COMPS:ARP:1,2019-04-01T01:24:00Z,28.4330,-82.6670,10.0,8.8,303.71,10.58,'1111122,1111122,1111122' 
COMPS,ioos:station:USF.COMPS:ARP:1,2019-04-01T01:30:00Z,28.4330,-82.6670,10.0,7.7,305.88,9.6,'1111122,1111122,1111122' 
COMPS,ioos:station:USF.COMPS:ARP:1,2019-04-01T01:36:00Z,28.4330,-82.6670,10.0,6.74,297.39,8.33,'1111122,1111122,1111122' 
COMPS,ioos:station:USF.COMPS:ARP:1,2019-04-01T01:42:00Z,28.4330,-82.6670,10.0,4.94,288.31,7.54,'1111122,1111122,1111122' 
COMPS,ioos:station:USF.COMPS:ARP:1,2019-04-01T01:48:00Z,28.4330,-82.6670,10.0,3.65,279.87,4.99,'1111122,1111122,1111122' 
COMPS,ioos:station:USF.COMPS:ARP:1,2019-04-01T01:54:00Z,28.4330,-82.6670,10.0,2.61,279.99,3.62,'1111122,1111122,1111122' 
COMPS,ioos:station:USF.COMPS:ARP:1,2019-04-01T02:00:00Z,28.4330,-82.6670,10.0,2.82,268.26,4.41,'1111122,1111122,1111122' 
COMPS,ioos:station:USF.COMPS:ARP:1,2019-04-01T02:06:00Z,28.4330,-82.6670,10.0,2.82,280.16,5.09,'1111122,1111122,1111122' 
COMPS,ioos:station:USF.COMPS:ARP:1,2019-04-01T02:12:00Z,28.4330,-82.6670,10.0,1.85,275.56,2.84,'1111122,1111122,1111122' 
COMPS,ioos:station:USF.COMPS:ARP:1,2019-04-01T02:18:00Z,28.4330,-82.6670,10.0,2.15,266.67,3.33,'1111122,1111122,1111122' 
COMPS,ioos:station:USF.COMPS:ARP:1,2019-04-01T02:24:00Z,28.4330,-82.6670,10.0,0.86,190.72,1.76,'1111122,1111122,1111122' 
COMPS,ioos:station:USF.COMPS:ARP:1,2019-04-01T02:30:00Z,28.4330,-82.6670,10.0,0.97,105.13,1.37,'1111122,1111122,1111122' 
COMPS,ioos:station:USF.COMPS:ARP:1,2019-04-01T02:36:00Z,28.4330,-82.6670,10.0,0.42,90.75,1.17,'1111122,1111122,1111122' 
COMPS,ioos:station:USF.COMPS:ARP:1,2019-04-01T02:42:00Z,28.4330,-82.6670,10.0,1.23,292.37,2.15,'1111122,1111122,1111122' 
COMPS,ioos:station:USF.COMPS:ARP:1,2019-04-01T02:48:00Z,28.4330,-82.6670,10.0,2.06,282.56,3.42,'1111122,1111122,1111122' 
COMPS,ioos:station:USF.COMPS:ARP:1,2019-04-01T02:54:00Z,28.4330,-82.6670,10.0,2.13,278.0,3.23,'1111122,1111122,1111122' 
COMPS,ioos:station:USF.COMPS:ARP:1,2019-04-01T03:00:00Z,28.4330,-82.6670,10.0,3.15,298.72,4.5,'1111122,1111122,1111122' 
COMPS,ioos:station:USF.COMPS:ARP:1,2019-04-01T03:06:00Z,28.4330,-82.6670,10.0,2.7,294.49,3.42,'1111122,1111122,1111122' 
COMPS,ioos:station:USF.COMPS:ARP:1,2019-04-01T03:12:00Z,28.4330,-82.6670,10.0,1.66,295.36,3.03,'1111122,1111122,1111122' 
COMPS,ioos:station:USF.COMPS:ARP:1,2019-04-01T03:18:00Z,28.4330,-82.6670,10.0,0.53,219.63,1.46,'1111122,1111122,1111122' 
COMPS,ioos:station:USF.COMPS:ARP:1,2019-04-01T03:24:00Z,28.4330,-82.6670,10.0,0.34,152.39,0.88,'1111122,1111122,1111122' 
COMPS,ioos:station:USF.COMPS:ARP:1,2019-04-01T03:30:00Z,28.4330,-82.6670,10.0,0.73,136.17,1.27,'1111122,1111122,1111122' 
COMPS,ioos:station:USF.COMPS:ARP:1,2019-04-01T03:36:00Z,28.4330,-82.6670,10.0,0.27,122.73,0.78,'1111122,1111122,1111122' 
COMPS,ioos:station:USF.COMPS:ARP:1,2019-04-01T03:42:00Z,28.4330,-82.6670,10.0,0.88,141.67,1.37,'1111122,1111122,1111122' 
COMPS,ioos:station:USF.COMPS:ARP:1,2019-04-01T03:48:00Z,28.4330,-82.6670,10.0,0.5,119.98,1.27,'1111122,1111122,1111122' 
COMPS,ioos:station:USF.COMPS:ARP:1,2019-04-01T03:54:00Z,28.4330,-82.6670,10.0,0.12,116.18,0.58,'1111122,1111122,1111122' 
COMPS,ioos:station:USF.COMPS:ARP:1,2019-04-01T04:00:00Z,28.4330,-82.6670,10.0,0.26,281.43,0.68,'1111122,1111122,1111122' 
COMPS,ioos:station:USF.COMPS:ARP:1,2019-04-01T04:06:00Z,28.4330,-82.6670,10.0,1.16,280.66,1.76,'1111122,1111122,1111122' 
COMPS,ioos:station:USF.COMPS:ARP:1,2019-04-01T04:12:00Z,28.4330,-82.6670,10.0,0.73,254.78,1.76,'1111122,1111122,1111122' 
COMPS,ioos:station:USF.COMPS:ARP:1,2019-04-01T04:18:00Z,28.4330,-82.6670,10.0,1.91,282.85,4.41,'1111122,1111122,1111122' 
COMPS,ioos:station:USF.COMPS:ARP:1,2019-04-01T04:24:00Z,28.4330,-82.6670,10.0,3.68,302.33,5.09,'1111122,1111122,1111122' 
COMPS,ioos:station:USF.COMPS:ARP:1,2019-04-01T04:30:00Z,28.4330,-82.6670,10.0,4.27,306.66,5.29,'1111122,1111122,1111122' 
COMPS,ioos:station:USF.COMPS:ARP:1,2019-04-01T04:36:00Z,28.4330,-82.6670,10.0,3.48,310.47,4.8,'1111122,1111122,1111122' 
COMPS,ioos:station:USF.COMPS:ARP:1,2019-04-01T04:42:00Z,28.4330,-82.6670,10.0,3.4,308.76,4.9,'1111122,1111122,1111122' 
COMPS,ioos:station:USF.COMPS:ARP:1,2019-04-01T04:48:00Z,28.4330,-82.6670,10.0,3.57,311.23,5.19,'1111122,1111122,1111122' 
COMPS,ioos:station:USF.COMPS:ARP:1,2019-04-01T04:54:00Z,28.4330,-82.6670,10.0,3.42,315.81,5.09,'1111122,1111122,1111122' 
COMPS,ioos:station:USF.COMPS:ARP:1,2019-04-01T05:00:00Z,28.4330,-82.6670,10.0,4.2,309.81,5.39,'1111122,1111122,1111122' 
COMPS,ioos:station:USF.COMPS:ARP:1,2019-04-01T05:06:00Z,28.4330,-82.6670,10.0,3.73,310.77,5.48,'1111122,1111122,1111122' 
COMPS,ioos:station:USF.COMPS:ARP:1,2019-04-01T05:12:00Z,28.4330,-82.6670,10.0,2.32,311.81,4.7,'1111122,1111122,1111122' 
COMPS,ioos:station:USF.COMPS:ARP:1,2019-04-01T05:18:00Z,28.4330,-82.6670,10.0,2.14,314.24,4.01,'1111122,1111122,1111122' 
COMPS,ioos:station:USF.COMPS:ARP:1,2019-04-01T05:24:00Z,28.4330,-82.6670,10.0,2.59,315.34,3.91,'1111122,1111122,1111122' 
COMPS,ioos:station:USF.COMPS:ARP:1,2019-04-01T05:30:00Z,28.4330,-82.6670,10.0,2.21,319.75,4.6,'1111122,1111122,1111122' 
COMPS,ioos:station:USF.COMPS:ARP:1,2019-04-01T05:36:00Z,28.4330,-82.6670,10.0,1.67,325.91,3.23,'1111122,1111122,1111122' 
COMPS,ioos:station:USF.COMPS:ARP:1,2019-04-01T05:42:00Z,28.4330,-82.6670,10.0,1.49,322.08,3.52,'1111122,1111122,1111122' 
COMPS,ioos:station:USF.COMPS:ARP:1,2019-04-01T05:48:00Z,28.4330,-82.6670,10.0,1.51,328.08,2.74,'1111122,1111122,1111122' 
COMPS,ioos:station:USF.COMPS:ARP:1,2019-04-01T05:54:00Z,28.4330,-82.6670,10.0,1.85,312.52,4.01,'1111122,1111122,1111122' 
COMPS,ioos:station:USF.COMPS:ARP:1,2019-04-01T06:00:00Z,28.4330,-82.6670,10.0,1.44,320.09,2.74,'1111122,1111122,1111122' 
COMPS,ioos:station:USF.COMPS:ARP:1,2019-04-01T06:06:00Z,28.4330,-82.6670,10.0,1.62,323.12,2.93,'1111122,1111122,1111122' 
COMPS,ioos:station:USF.COMPS:ARP:1,2019-04-01T06:12:00Z,28.4330,-82.6670,10.0,1.69,319.83,2.84,'1111122,1111122,1111122' 
COMPS,ioos:station:USF.COMPS:ARP:1,2019-04-01T06:18:00Z,28.4330,-82.6670,10.0,1.47,335.82,4.5,'1111122,1111122,1111122' 
COMPS,ioos:station:USF.COMPS:ARP:1,2019-04-01T06:24:00Z,28.4330,-82.6670,10.0,1.61,322.93,4.11,'1111122,1111122,1111122' 
COMPS,ioos:station:USF.COMPS:ARP:1,2019-04-01T06:30:00Z,28.4330,-82.6670,10.0,1.83,325.9,3.42,'1111122,1111122,1111122' 
COMPS,ioos:station:USF.COMPS:ARP:1,2019-04-01T06:36:00Z,28.4330,-82.6670,10.0,2.47,311.65,3.91,'1111122,1111122,1111122' 
COMPS,ioos:station:USF.COMPS:ARP:1,2019-04-01T06:42:00Z,28.4330,-82.6670,10.0,2.51,317.31,5.78,'1111122,1111122,1111122' 
COMPS,ioos:station:USF.COMPS:ARP:1,2019-04-01T06:48:00Z,28.4330,-82.6670,10.0,2.08,317.89,3.91,'1111122,1111122,1111122' 
COMPS,ioos:station:USF.COMPS:ARP:1,2019-04-01T06:54:00Z,28.4330,-82.6670,10.0,1.72,311.24,3.42,'1111122,1111122,1111122' 
COMPS,ioos:station:USF.COMPS:ARP:1,2019-04-01T07:00:00Z,28.4330,-82.6670,10.0,1.6,323.19,3.33,'1111122,1111122,1111122' 
COMPS,ioos:station:USF.COMPS:ARP:1,2019-04-01T07:06:00Z,28.4330,-82.6670,10.0,1.9,321.01,4.6,'1111122,1111122,1111122' 
COMPS,ioos:station:USF.COMPS:ARP:1,2019-04-01T07:12:00Z,28.4330,-82.6670,10.0,1.98,317.65,3.82,'1111122,1111122,1111122' 
COMPS,ioos:station:USF.COMPS:ARP:1,2019-04-01T07:18:00Z,28.4330,-82.6670,10.0,3.14,311.72,5.39,'1111122,1111122,1111122' 
COMPS,ioos:station:USF.COMPS:ARP:1,2019-04-01T07:24:00Z,28.4330,-82.6670,10.0,3.05,316.38,4.9,'1111122,1111122,1111122' 
COMPS,ioos:station:USF.COMPS:ARP:1,2019-04-01T07:30:00Z,28.4330,-82.6670,10.0,3.04,320.65,5.78,'1111122,1111122,1111122' 
COMPS,ioos:station:USF.COMPS:ARP:1,2019-04-01T07:36:00Z,28.4330,-82.6670,10.0,2.9,313.73,5.29,'1111122,1111122,1111122' 
COMPS,ioos:station:USF.COMPS:ARP:1,2019-04-01T07:42:00Z,28.4330,-82.6670,10.0,2.5,317.02,4.11,'1111122,1111122,1111122' 
COMPS,ioos:station:USF.COMPS:ARP:1,2019-04-01T07:48:00Z,28.4330,-82.6670,10.0,2.61,308.99,4.31,'1111122,1111122,1111122' 
COMPS,ioos:station:USF.COMPS:ARP:1,2019-04-01T07:54:00Z,28.4330,-82.6670,10.0,2.29,314.14,4.21,'1111122,1111122,1111122' 
COMPS,ioos:station:USF.COMPS:ARP:1,2019-04-01T08:00:00Z,28.4330,-82.6670,10.0,1.79,332.0,3.23,'1111122,1111122,1111122' 
COMPS,ioos:station:USF.COMPS:ARP:1,2019-04-01T08:06:00Z,28.4330,-82.6670,10.0,1.31,344.19,3.42,'1111122,1111122,1111122' 
COMPS,ioos:station:USF.COMPS:ARP:1,2019-04-01T08:12:00Z,28.4330,-82.6670,10.0,1.86,342.2,4.6,'1111122,1111122,1111122' 
COMPS,ioos:station:USF.COMPS:ARP:1,2019-04-01T08:18:00Z,28.4330,-82.6670,10.0,1.63,347.05,4.31,'1111122,1111122,1111122' 
COMPS,ioos:station:USF.COMPS:ARP:1,2019-04-01T08:24:00Z,28.4330,-82.6670,10.0,0.62,62.46,1.95,'1111122,1111122,1111122' 
COMPS,ioos:station:USF.COMPS:ARP:1,2019-04-01T08:30:00Z,28.4330,-82.6670,10.0,1.09,41.06,2.45,'1111122,1111122,1111122' 
COMPS,ioos:station:USF.COMPS:ARP:1,2019-04-01T08:36:00Z,28.4330,-82.6670,10.0,0.97,35.41,2.84,'1111122,1111122,1111122' 
COMPS,ioos:station:USF.COMPS:ARP:1,2019-04-01T08:42:00Z,28.4330,-82.6670,10.0,1.4,46.74,3.23,'1111122,1111122,1111122' 
COMPS,ioos:station:USF.COMPS:ARP:1,2019-04-01T08:48:00Z,28.4330,-82.6670,10.0,1.2,52.1,2.84,'1111122,1111122,1111122' 
COMPS,ioos:station:USF.COMPS:ARP:1,2019-04-01T08:54:00Z,28.4330,-82.6670,10.0,1.33,55.54,3.72,'1111122,1111122,1111122' 
COMPS,ioos:station:USF.COMPS:ARP:1,2019-04-01T09:00:00Z,28.4330,-82.6670,10.0,0.95,51.55,2.45,'1111122,1111122,1111122' 
COMPS,ioos:station:USF.COMPS:ARP:1,2019-04-01T09:06:00Z,28.4330,-82.6670,10.0,0.66,30.95,2.25,'1111122,1111122,1111122' 
COMPS,ioos:station:USF.COMPS:ARP:1,2019-04-01T09:12:00Z,28.4330,-82.6670,10.0,0.54,44.23,1.17,'1111122,1111122,1111122' 
COMPS,ioos:station:USF.COMPS:ARP:1,2019-04-01T09:18:00Z,28.4330,-82.6670,10.0,0.91,50.6,1.86,'1111122,1111122,1111122' 
COMPS,ioos:station:USF.COMPS:ARP:1,2019-04-01T09:24:00Z,28.4330,-82.6670,10.0,0.77,56.78,1.95,'1111122,1111122,1111122' 
COMPS,ioos:station:USF.COMPS:ARP:1,2019-04-01T09:30:00Z,28.4330,-82.6670,10.0,1.37,56.29,2.35,'1111122,1111122,1111122' 
COMPS,ioos:station:USF.COMPS:ARP:1,2019-04-01T09:36:00Z,28.4330,-82.6670,10.0,0.9,58.03,1.95,'1111122,1111122,1111122' 
COMPS,ioos:station:USF.COMPS:ARP:1,2019-04-01T09:42:00Z,28.4330,-82.6670,10.0,1.2,65.24,2.35,'1111122,1111122,1111122' 
COMPS,ioos:station:USF.COMPS:ARP:1,2019-04-01T09:48:00Z,28.4330,-82.6670,10.0,1.97,65.42,3.03,'1111122,1111122,1111122' 
COMPS,ioos:station:USF.COMPS:ARP:1,2019-04-01T09:54:00Z,28.4330,-82.6670,10.0,2.28,69.68,3.52,'1111122,1111122,1111122' 
COMPS,ioos:station:USF.COMPS:ARP:1,2019-04-01T10:00:00Z,28.4330,-82.6670,10.0,2.11,71.18,2.93,'1111122,1111122,1111122' 
COMPS,ioos:station:USF.COMPS:ARP:1,2019-04-01T10:06:00Z,28.4330,-82.6670,10.0,1.88,72.66,2.64,'1111122,1111122,1111122' 
COMPS,ioos:station:USF.COMPS:ARP:1,2019-04-01T10:12:00Z,28.4330,-82.6670,10.0,2.0,79.59,2.84,'1111122,1111122,1111122' 
COMPS,ioos:station:USF.COMPS:ARP:1,2019-04-01T10:18:00Z,28.4330,-82.6670,10.0,1.44,77.27,2.25,'1111122,1111122,1111122' 
COMPS,ioos:station:USF.COMPS:ARP:1,2019-04-01T10:24:00Z,28.4330,-82.6670,10.0,1.29,63.05,2.15,'1111122,1111122,1111122' 
COMPS,ioos:station:USF.COMPS:ARP:1,2019-04-01T10:30:00Z,28.4330,-82.6670,10.0,0.6,55.44,1.66,'1111122,1111122,1111122' 
COMPS,ioos:station:USF.COMPS:ARP:1,2019-04-01T10:36:00Z,28.4330,-82.6670,10.0,0.54,50.89,1.46,'1111122,1111122,1111122' 
COMPS,ioos:station:USF.COMPS:ARP:1,2019-04-01T10:42:00Z,28.4330,-82.6670,10.0,1.01,71.03,1.76,'1111122,1111122,1111122' 
COMPS,ioos:station:USF.COMPS:ARP:1,2019-04-01T10:48:00Z,28.4330,-82.6670,10.0,2.34,70.66,3.72,'1111122,1111122,1111122' 
COMPS,ioos:station:USF.COMPS:ARP:1,2019-04-01T10:54:00Z,28.4330,-82.6670,10.0,3.18,74.09,4.5,'1111122,1111122,1111122' 
COMPS,ioos:station:USF.COMPS:ARP:1,2019-04-01T11:00:00Z,28.4330,-82.6670,10.0,2.77,76.82,3.82,'1111122,1111122,1111122' 
COMPS,ioos:station:USF.COMPS:ARP:1,2019-04-01T11:06:00Z,28.4330,-82.6670,10.0,3.02,74.87,4.11,'1111122,1111122,1111122' 
COMPS,ioos:station:USF.COMPS:ARP:1,2019-04-01T11:12:00Z,28.4330,-82.6670,10.0,2.79,76.95,3.62,'1111122,1111122,1111122' 
COMPS,ioos:station:USF.COMPS:ARP:1,2019-04-01T11:18:00Z,28.4330,-82.6670,10.0,3.19,75.82,4.8,'1111122,1111122,1111122' 
COMPS,ioos:station:USF.COMPS:ARP:1,2019-04-01T11:24:00Z,28.4330,-82.6670,10.0,3.09,70.84,4.6,'1111122,1111122,1111122' 
COMPS,ioos:station:USF.COMPS:ARP:1,2019-04-01T11:30:00Z,28.4330,-82.6670,10.0,3.52,73.2,5.09,'1111122,1111122,1111122' 
COMPS,ioos:station:USF.COMPS:ARP:1,2019-04-01T11:36:00Z,28.4330,-82.6670,10.0,3.3,67.82,5.39,'1111122,1111122,1111122' 
COMPS,ioos:station:USF.COMPS:ARP:1,2019-04-01T11:42:00Z,28.4330,-82.6670,10.0,3.95,74.05,6.07,'1111122,1111122,1111122' 
COMPS,ioos:station:USF.COMPS:ARP:1,2019-04-01T11:48:00Z,28.4330,-82.6670,10.0,2.95,73.96,4.41,'1111122,1111122,1111122' 
COMPS,ioos:station:USF.COMPS:ARP:1,2019-04-01T11:54:00Z,28.4330,-82.6670,10.0,3.29,77.18,4.8,'1111122,1111122,1111122' 
COMPS,ioos:station:USF.COMPS:ARP:1,2019-04-01T12:00:00Z,28.4330,-82.6670,10.0,3.45,75.26,4.9,'1111122,1111122,1111122' 
COMPS,ioos:station:USF.COMPS:ARP:1,2019-04-01T12:06:00Z,28.4330,-82.6670,10.0,3.69,64.95,4.7,'1111122,1111122,1111122' 
COMPS,ioos:station:USF.COMPS:ARP:1,2019-04-01T12:12:00Z,28.4330,-82.6670,10.0,3.59,72.8,4.99,'1111122,1111122,1111122' 
COMPS,ioos:station:USF.COMPS:ARP:1,2019-04-01T12:18:00Z,28.4330,-82.6670,10.0,3.93,70.18,5.29,'1111122,1111122,1111122' 
COMPS,ioos:station:USF.COMPS:ARP:1,2019-04-01T12:24:00Z,28.4330,-82.6670,10.0,3.16,82.16,4.99,'1111122,1111122,1111122' 
COMPS,ioos:station:USF.COMPS:ARP:1,2019-04-01T12:30:00Z,28.4330,-82.6670,10.0,3.51,73.07,5.19,'1111122,1111122,1111122' 
COMPS,ioos:station:USF.COMPS:ARP:1,2019-04-01T12:36:00Z,28.4330,-82.6670,10.0,3.96,75.93,5.58,'1111122,1111122,1111122' 
COMPS,ioos:station:USF.COMPS:ARP:1,2019-04-01T12:42:00Z,28.4330,-82.6670,10.0,4.49,73.19,6.27,'1111122,1111122,1111122' 
COMPS,ioos:station:USF.COMPS:ARP:1,2019-04-01T12:48:00Z,28.4330,-82.6670,10.0,4.23,73.98,5.97,'1111122,1111122,1111122' 
COMPS,ioos:station:USF.COMPS:ARP:1,2019-04-01T12:54:00Z,28.4330,-82.6670,10.0,4.52,66.6,6.46,'1111122,1111122,1111122' 
COMPS,ioos:station:USF.COMPS:ARP:1,2019-04-01T13:00:00Z,28.4330,-82.6670,10.0,4.17,75.97,5.87,'1111122,1111122,1111122' 
COMPS,ioos:station:USF.COMPS:ARP:1,2019-04-01T13:06:00Z,28.4330,-82.6670,10.0,5.15,71.98,8.13,'1111122,1111122,1111122' 
COMPS,ioos:station:USF.COMPS:ARP:1,2019-04-01T13:12:00Z,28.4330,-82.6670,10.0,5.02,73.81,6.85,'1111122,1111122,1111122' 
COMPS,ioos:station:USF.COMPS:ARP:1,2019-04-01T13:18:00Z,28.4330,-82.6670,10.0,4.13,79.73,6.37,'1111122,1111122,1111122' 
COMPS,ioos:station:USF.COMPS:ARP:1,2019-04-01T13:24:00Z,28.4330,-82.6670,10.0,3.83,69.08,5.48,'1111122,1111122,1111122' 
COMPS,ioos:station:USF.COMPS:ARP:1,2019-04-01T13:30:00Z,28.4330,-82.6670,10.0,4.37,71.03,6.17,'1111122,1111122,1111122' 
COMPS,ioos:station:USF.COMPS:ARP:1,2019-04-01T13:36:00Z,28.4330,-82.6670,10.0,4.17,76.71,5.58,'1111122,1111122,1111122' 
COMPS,ioos:station:USF.COMPS:ARP:1,2019-04-01T13:42:00Z,28.4330,-82.6670,10.0,3.76,76.35,6.17,'1111122,1111122,1111122' 
COMPS,ioos:station:USF.COMPS:ARP:1,2019-04-01T13:48:00Z,28.4330,-82.6670,10.0,2.98,64.52,5.29,'1111122,1111122,1111122' 
COMPS,ioos:station:USF.COMPS:ARP:1,2019-04-01T13:54:00Z,28.4330,-82.6670,10.0,4.08,75.06,6.07,'1111122,1111122,1111122' 
COMPS,ioos:station:USF.COMPS:ARP:1,2019-04-01T14:00:00Z,28.4330,-82.6670,10.0,4.0,76.24,6.37,'1111122,1111122,1111122' 
COMPS,ioos:station:USF.COMPS:ARP:1,2019-04-01T14:06:00Z,28.4330,-82.6670,10.0,4.01,77.21,5.48,'1111122,1111122,1111122' 
COMPS,ioos:station:USF.COMPS:ARP:1,2019-04-01T14:12:00Z,28.4330,-82.6670,10.0,4.47,71.69,5.87,'1111122,1111122,1111122' 
COMPS,ioos:station:USF.COMPS:ARP:1,2019-04-01T14:18:00Z,28.4330,-82.6670,10.0,4.17,72.19,5.48,'1111122,1111122,1111122' 
COMPS,ioos:station:USF.COMPS:ARP:1,2019-04-01T14:24:00Z,28.4330,-82.6670,10.0,4.12,73.57,5.58,'1111122,1111122,1111122' 
COMPS,ioos:station:USF.COMPS:ARP:1,2019-04-01T14:30:00Z,28.4330,-82.6670,10.0,4.34,71.82,6.17,'1111122,1111122,1111122' 
COMPS,ioos:station:USF.COMPS:ARP:1,2019-04-01T14:36:00Z,28.4330,-82.6670,10.0,3.85,71.65,5.68,'1111122,1111122,1111122' 
COMPS,ioos:station:USF.COMPS:ARP:1,2019-04-01T14:42:00Z,28.4330,-82.6670,10.0,3.93,72.56,5.48,'1111122,1111122,1111122' 
COMPS,ioos:station:USF.COMPS:ARP:1,2019-04-01T14:48:00Z,28.4330,-82.6670,10.0,3.18,78.29,4.9,'1111122,1111122,1111122' 
COMPS,ioos:station:USF.COMPS:ARP:1,2019-04-01T14:54:00Z,28.4330,-82.6670,10.0,2.8,80.39,4.5,'1111122,1111122,1111122' 
COMPS,ioos:station:USF.COMPS:ARP:1,2019-04-01T15:00:00Z,28.4330,-82.6670,10.0,3.14,78.03,4.5,'1111122,1111122,1111122' 
COMPS,ioos:station:USF.COMPS:ARP:1,2019-04-01T15:06:00Z,28.4330,-82.6670,10.0,3.44,82.61,5.09,'1111122,1111122,1111122' 
COMPS,ioos:station:USF.COMPS:ARP:1,2019-04-01T15:12:00Z,28.4330,-82.6670,10.0,2.91,86.1,4.11,'1111122,1111122,1111122' 
COMPS,ioos:station:USF.COMPS:ARP:1,2019-04-01T15:18:00Z,28.4330,-82.6670,10.0,3.03,70.81,4.7,'1111122,1111122,1111122' 
COMPS,ioos:station:USF.COMPS:ARP:1,2019-04-01T15:24:00Z,28.4330,-82.6670,10.0,3.14,69.92,4.21,'1111122,1111122,1111122' 
COMPS,ioos:station:USF.COMPS:ARP:1,2019-04-01T15:30:00Z,28.4330,-82.6670,10.0,3.94,73.2,5.68,'1111122,1111122,1111122' 
COMPS,ioos:station:USF.COMPS:ARP:1,2019-04-01T15:36:00Z,28.4330,-82.6670,10.0,4.32,70.51,5.68,'1111122,1111122,1111122' 
COMPS,ioos:station:USF.COMPS:ARP:1,2019-04-01T15:42:00Z,28.4330,-82.6670,10.0,3.71,72.75,5.39,'1111122,1111122,1111122' 
COMPS,ioos:station:USF.COMPS:ARP:1,2019-04-01T15:48:00Z,28.4330,-82.6670,10.0,3.8,70.59,4.99,'1111122,1111122,1111122' 
COMPS,ioos:station:USF.COMPS:ARP:1,2019-04-01T15:54:00Z,28.4330,-82.6670,10.0,2.54,80.22,4.7,'1111122,1111122,1111122' 
COMPS,ioos:station:USF.COMPS:ARP:1,2019-04-01T16:00:00Z,28.4330,-82.6670,10.0,2.37,72.31,3.23,'1111122,1111122,1111122' 
COMPS,ioos:station:USF.COMPS:ARP:1,2019-04-01T16:06:00Z,28.4330,-82.6670,10.0,2.3,74.59,3.62,'1111122,1111122,1111122' 
COMPS,ioos:station:USF.COMPS:ARP:1,2019-04-01T16:12:00Z,28.4330,-82.6670,10.0,1.78,67.8,3.03,'1111122,1111122,1111122' 
COMPS,ioos:station:USF.COMPS:ARP:1,2019-04-01T16:18:00Z,28.4330,-82.6670,10.0,2.4,73.08,3.13,'1111122,1111122,1111122' 
COMPS,ioos:station:USF.COMPS:ARP:1,2019-04-01T16:24:00Z,28.4330,-82.6670,10.0,2.28,64.02,3.33,'1111122,1111122,1111122' 
COMPS,ioos:station:USF.COMPS:ARP:1,2019-04-01T16:30:00Z,28.4330,-82.6670,10.0,0.9,32.46,2.35,'1111122,1111122,1111122' 
COMPS,ioos:station:USF.COMPS:ARP:1,2019-04-01T16:36:00Z,28.4330,-82.6670,10.0,0.75,30.74,2.25,'1111122,1111122,1111122' 
COMPS,ioos:station:USF.COMPS:ARP:1,2019-04-01T16:42:00Z,28.4330,-82.6670,10.0,1.99,60.37,3.62,'1111122,1111122,1111122' 
COMPS,ioos:station:USF.COMPS:ARP:1,2019-04-01T16:48:00Z,28.4330,-82.6670,10.0,1.95,60.01,4.41,'1111122,1111122,1111122' 
COMPS,ioos:station:USF.COMPS:ARP:1,2019-04-01T16:54:00Z,28.4330,-82.6670,10.0,2.51,61.28,4.31,'1111122,1111122,1111122' 
COMPS,ioos:station:USF.COMPS:ARP:1,2019-04-01T17:00:00Z,28.4330,-82.6670,10.0,3.48,68.92,4.6,'1111122,1111122,1111122' 
COMPS,ioos:station:USF.COMPS:ARP:1,2019-04-01T17:06:00Z,28.4330,-82.6670,10.0,3.48,67.1,5.39,'1111122,1111122,1111122' 
COMPS,ioos:station:USF.COMPS:ARP:1,2019-04-01T17:12:00Z,28.4330,-82.6670,10.0,3.6,75.51,4.7,'1111122,1111122,1111122' 
COMPS,ioos:station:USF.COMPS:ARP:1,2019-04-01T17:18:00Z,28.4330,-82.6670,10.0,3.82,80.19,4.99,'1111122,1111122,1111122' 
COMPS,ioos:station:USF.COMPS:ARP:1,2019-04-01T17:24:00Z,28.4330,-82.6670,10.0,3.45,83.47,4.99,'1111122,1111122,1111122' 
COMPS,ioos:station:USF.COMPS:ARP:1,2019-04-01T17:30:00Z,28.4330,-82.6670,10.0,3.12,84.08,4.31,'1111122,1111122,1111122' 
COMPS,ioos:station:USF.COMPS:ARP:1,2019-04-01T17:36:00Z,28.4330,-82.6670,10.0,3.33,89.91,4.9,'1111122,1111122,1111122' 
COMPS,ioos:station:USF.COMPS:ARP:1,2019-04-01T17:42:00Z,28.4330,-82.6670,10.0,2.95,88.72,4.21,'1111122,1111122,1111122' 
COMPS,ioos:station:USF.COMPS:ARP:1,2019-04-01T17:48:00Z,28.4330,-82.6670,10.0,2.84,88.52,4.31,'1111122,1111122,1111122' 
COMPS,ioos:station:USF.COMPS:ARP:1,2019-04-01T17:54:00Z,28.4330,-82.6670,10.0,3.16,93.8,4.6,'1111122,1111122,1111122' 
COMPS,ioos:station:USF.COMPS:ARP:1,2019-04-01T18:00:00Z,28.4330,-82.6670,10.0,2.49,98.55,4.11,'1111122,1111122,1111122' 
COMPS,ioos:station:USF.COMPS:ARP:1,2019-04-01T18:06:00Z,28.4330,-82.6670,10.0,2.82,102.58,4.31,'1111122,1111122,1111122' 
COMPS,ioos:station:USF.COMPS:ARP:1,2019-04-01T18:12:00Z,28.4330,-82.6670,10.0,3.28,100.18,5.68,'1111122,1111122,1111122' 
COMPS,ioos:station:USF.COMPS:ARP:1,2019-04-01T18:18:00Z,28.4330,-82.6670,10.0,2.62,97.79,4.11,'1111122,1111122,1111122' 
COMPS,ioos:station:USF.COMPS:ARP:1,2019-04-01T18:24:00Z,28.4330,-82.6670,10.0,3.34,98.06,4.7,'1111122,1111122,1111122' 
COMPS,ioos:station:USF.COMPS:ARP:1,2019-04-01T18:30:00Z,28.4330,-82.6670,10.0,3.62,102.45,6.07,'1111122,1111122,1111122' 
COMPS,ioos:station:USF.COMPS:ARP:1,2019-04-01T18:36:00Z,28.4330,-82.6670,10.0,3.6,98.39,6.37,'1111122,1111122,1111122' 
COMPS,ioos:station:USF.COMPS:ARP:1,2019-04-01T18:42:00Z,28.4330,-82.6670,10.0,3.67,99.78,5.09,'1111122,1111122,1111122' 
COMPS,ioos:station:USF.COMPS:ARP:1,2019-04-01T18:48:00Z,28.4330,-82.6670,10.0,3.34,106.69,5.87,'1111122,1111122,1111122' 
COMPS,ioos:station:USF.COMPS:ARP:1,2019-04-01T18:54:00Z,28.4330,-82.6670,10.0,3.94,108.29,5.58,'1111122,1111122,1111122' 
COMPS,ioos:station:USF.COMPS:ARP:1,2019-04-01T19:00:00Z,28.4330,-82.6670,10.0,3.9,109.7,6.37,'1111122,1111122,1111122' 
COMPS,ioos:station:USF.COMPS:ARP:1,2019-04-01T19:06:00Z,28.4330,-82.6670,10.0,3.54,105.98,5.68,'1111122,1111122,1111122' 
COMPS,ioos:station:USF.COMPS:ARP:1,2019-04-01T19:12:00Z,28.4330,-82.6670,10.0,3.36,107.25,5.09,'1111122,1111122,1111122' 
COMPS,ioos:station:USF.COMPS:ARP:1,2019-04-01T19:18:00Z,28.4330,-82.6670,10.0,3.03,108.11,4.6,'1111122,1111122,1111122' 
COMPS,ioos:station:USF.COMPS:ARP:1,2019-04-01T19:24:00Z,28.4330,-82.6670,10.0,2.79,112.79,4.7,'1111122,1111122,1111122' 
COMPS,ioos:station:USF.COMPS:ARP:1,2019-04-01T19:30:00Z,28.4330,-82.6670,10.0,3.08,111.91,4.8,'1111122,1111122,1111122' 
COMPS,ioos:station:USF.COMPS:ARP:1,2019-04-01T19:36:00Z,28.4330,-82.6670,10.0,3.38,111.59,5.39,'1111122,1111122,1111122' 